This is the latest recevied weather packets stored in our database for station/object DD3FC-1. If no packets are shown the sender has not sent any weather packets the latest 10 day(s).
| Time | Temp. | Humidity | Pressure | Rain* | Wind** | Luminosity | Snow |
|---|---|---|---|---|---|---|---|
| 1777573848 | 16.67° C | 24% | 1026.7 hPa | 0 mm | - | - | - |
| 1777573248 | 16.67° C | 23% | 1026.7 hPa | 0 mm | - | - | - |
| 1777572648 | 16.67° C | 22% | 1026.5 hPa | 0 mm | - | - | - |
| 1777572048 | 17.22° C | 23% | 1026.5 hPa | 0 mm | - | - | - |
| 1777571448 | 17.22° C | 23% | 1026.4 hPa | 0 mm | - | - | - |
| 1777570848 | 17.22° C | 23% | 1026.4 hPa | 0 mm | - | - | - |
| 1777570248 | 17.22° C | 23% | 1026.3 hPa | 0 mm | - | - | - |
| 1777569648 | 17.78° C | 22% | 1026.2 hPa | 0 mm | - | - | - |
| 1777569048 | 17.78° C | 22% | 1026.3 hPa | 0 mm | - | - | - |
| 1777568448 | 17.78° C | 22% | 1026.5 hPa | 0 mm | - | - | - |
| 1777567848 | 18.33° C | 23% | 1026.6 hPa | 0 mm | - | - | - |
| 1777567248 | 18.33° C | 22% | 1026.6 hPa | 0 mm | - | - | - |
| 1777566648 | 18.33° C | 22% | 1026.7 hPa | 0 mm | - | - | - |
| 1777566049 | 18.33° C | 20% | 1026.8 hPa | 0 mm | - | - | - |
| 1777565449 | 18.33° C | 20% | 1026.8 hPa | 0 mm | - | - | - |
| 1777564849 | 18.89° C | 20% | 1026.5 hPa | 0 mm | - | - | - |
| 1777564249 | 18.89° C | 20% | 1026.7 hPa | 0 mm | - | - | - |
| 1777563649 | 18.89° C | 20% | 1026.8 hPa | 0 mm | - | - | - |
| 1777563049 | 19.44° C | 20% | 1026.8 hPa | 0 mm | - | - | - |
| 1777562449 | 19.44° C | 19% | 1026.8 hPa | 0 mm | - | - | - |
| 1777561849 | 19.44° C | 18% | 1026.9 hPa | 0 mm | - | - | - |
| 1777561249 | 20° C | 18% | 1027 hPa | 0 mm | - | - | - |
| 1777560649 | 20.56° C | 17% | 1027.1 hPa | 0 mm | - | - | - |
| 1777560049 | 20° C | 18% | 1027 hPa | 0 mm | - | - | - |
| 1777559449 | 20° C | 19% | 1027.2 hPa | 0 mm | - | - | - |
* Rain latest hour (hover to see other rain measurements)
** Current wind speed in m/s (hover to see current wind gust speed)